Albion, NE

6:05 PM CDT on October 17, 2017 (GMT -0500)
Albion Municipal

Weather History for KBVN - August, 2013

Change the Weather History Date:

Thursday, August 22, 2013

  Actual Average (KOFK) Record (KOFK)
Temperature  
Mean Temperature 74 °F -  
Max Temperature 81 °F 84 °F 106 °F (1938)
Min Temperature 66 °F 62 °F 40 °F (1923)
Cooling Degree Days 8    
Growing Degree Days 24 (Base 50)    
Moisture  
Dew Point 67 °F    
Average Humidity 80    
Maximum Humidity 98    
Minimum Humidity 63    
Precipitation  
Precipitation 0.49 in - - ()
Sea Level Pressure  
Sea Level Pressure 30.08 in    
Wind  
Wind Speed 8 mph (East)    
Max Wind Speed 22 mph    
Max Gust Speed 26 mph    
Visibility 10 miles    
Events Rain , Thunderstorm    
Averages and records for this station are not official NWS values.
T = Trace of Precipitation, MM = Missing Value Source: NWS Daily Summary

Daily Weather History Graph

Daily Weather History Graph

Search for Another Location

Airport or City:

Trip Planner

Search our weather history database for the weather conditions in past years. The results will help you decide how hot, cold, wet, or windy it might be!

Date:

Astronomy

Aug. 22, 2013 Rise Set
Actual Time 6:48 AM CDT 8:21 PM CDT
Civil Twilight 6:18 AM CDT 8:50 PM CDT
Nautical Twilight 5:43 AM CDT 9:25 PM CDT
Astronomical Twilight 5:05 AM CDT 10:03 PM CDT
Moon 9:03 PM CDT (8/22) 8:40 AM CDT (8/22)
Length of Visible Light 14h 31m
Length of Day
13h 33m
Waning Gibbous, 96% of the Moon is Illuminated
Aug 22
Waning Gibbous
Aug 28
Last Quarter
Sep 5
New
Sep 12
First Quarter
Sep 19
Full

Hourly Weather History & Observations

Time (CDT) Temp. Heat Index Dew Point Humidity Pressure Visibility Wind Dir Wind Speed Gust Speed Precip Events Conditions
12:15 AM 66.6 °F - 64.8 °F 94% 30.09 in 10.0 mi NNW 10.4 mph 21.9 mph 0.02 in Rain , Thunderstorm Light Thunderstorms and Rain
12:35 AM 67.1 °F - 65.5 °F 95% 30.11 in 4.0 mi North 15.0 mph 23.0 mph 0.11 in Rain , Thunderstorm Heavy Thunderstorms and Rain
12:55 AM 67.1 °F - 64.8 °F 92% 30.08 in 7.0 mi ENE 21.9 mph 26.5 mph 0.17 in Rain , Thunderstorm Thunderstorms and Rain
1:15 AM 67.3 °F - 64.9 °F 92% 30.07 in 10.0 mi NNE 5.8 mph 10.4 mph 0.01 in Rain , Thunderstorm Light Thunderstorms and Rain
1:35 AM 67.6 °F - 65.3 °F 92% 30.06 in 10.0 mi North 5.8 mph - 0.03 in Rain , Thunderstorm Rain
1:55 AM 67.3 °F - 65.3 °F 93% 30.11 in 10.0 mi NW 15.0 mph 19.6 mph 0.05 in Rain , Thunderstorm Thunderstorms and Rain
2:15 AM 67.1 °F - 65.3 °F 94% 30.11 in 3.0 mi NNE 9.2 mph - 0.16 in Rain , Thunderstorm Heavy Thunderstorms and Rain
2:35 AM 66.7 °F - 65.3 °F 95% 30.08 in 7.0 mi SE 6.9 mph - 0.20 in Rain , Thunderstorm Thunderstorms and Rain
2:55 AM 66.6 °F - 65.7 °F 97% 30.07 in 7.0 mi ESE 8.1 mph - 0.23 in Rain , Thunderstorm Thunderstorms and Rain
3:15 AM 66.6 °F - 65.8 °F 98% 30.07 in 7.0 mi SSE 9.2 mph - 0.02 in Rain Rain
3:35 AM 66.4 °F - 65.7 °F 98% 30.06 in 7.0 mi SE 12.7 mph - 0.03 in Rain , Thunderstorm Light Thunderstorms and Rain
3:55 AM 66.4 °F - 65.7 °F 98% 30.06 in 10.0 mi SE 6.9 mph - 0.04 in Rain , Thunderstorm Light Thunderstorms and Rain
4:15 AM 66.4 °F - 65.7 °F 98% 30.06 in 10.0 mi SE 5.8 mph - N/A Rain Light Rain
4:35 AM 66.9 °F - 66.2 °F 98% 30.05 in 10.0 mi SE 6.9 mph - N/A Thunderstorm Clear
4:55 AM 67.5 °F - 66.6 °F 97% 30.04 in 10.0 mi SSE 10.4 mph - N/A Thunderstorm Clear
5:15 AM 67.6 °F - 66.2 °F 95% 30.03 in 10.0 mi South 9.2 mph - N/A   Scattered Clouds
5:35 AM 68.0 °F - 66.2 °F 94% 30.03 in 10.0 mi SSE 9.2 mph - N/A   Mostly Cloudy
5:55 AM 67.5 °F - 65.7 °F 94% 30.04 in 10.0 mi SSE 8.1 mph - N/A   Mostly Cloudy
6:15 AM 67.3 °F - 65.7 °F 95% 30.04 in 10.0 mi SSE 3.5 mph - N/A   Overcast
6:35 AM 68.0 °F - 64.8 °F 89% 30.04 in 10.0 mi Calm Calm - N/A   Mostly Cloudy
6:55 AM 68.7 °F - 63.5 °F 83% 30.04 in 10.0 mi Calm Calm - N/A   Scattered Clouds
7:15 AM 69.1 °F - 62.6 °F 80% 30.03 in 10.0 mi Calm Calm - N/A   Clear
7:35 AM 67.6 °F - 63.1 °F 85% 30.04 in 10.0 mi NW 4.6 mph - N/A   Clear
7:55 AM 68.0 °F - 63.5 °F 85% 30.05 in 10.0 mi NNW 9.2 mph - N/A   Clear
8:15 AM 69.1 °F - 64.0 °F 84% 30.05 in 10.0 mi North 6.9 mph - N/A   Clear
8:35 AM 70.2 °F - 64.6 °F 82% 30.07 in 10.0 mi NNW 4.6 mph - N/A   Clear
8:55 AM 70.7 °F - 64.9 °F 82% 30.06 in 10.0 mi North 9.2 mph - N/A   Clear
9:15 AM 71.4 °F - 65.1 °F 80% 30.06 in 10.0 mi North 8.1 mph - N/A   Clear
9:35 AM 72.3 °F - 65.5 °F 79% 30.08 in 10.0 mi North 6.9 mph - N/A   Clear
9:55 AM 73.4 °F - 65.8 °F 77% 30.08 in 10.0 mi NNW 6.9 mph - N/A   Clear
10:15 AM 74.3 °F - 65.7 °F 74% 30.09 in 10.0 mi NNW 6.9 mph - N/A   Clear
10:35 AM 75.4 °F - 66.6 °F 74% 30.10 in 10.0 mi NNW 5.8 mph - N/A   Clear
10:55 AM 75.2 °F - 65.3 °F 71% 30.11 in 10.0 mi Calm Calm - N/A   Clear
11:15 AM 76.1 °F - 65.5 °F 70% 30.11 in 10.0 mi Calm Calm - N/A   Clear
11:35 AM 76.6 °F - 65.7 °F 69% 30.12 in 10.0 mi Calm Calm - N/A   Scattered Clouds
11:55 AM 77.4 °F - 66.0 °F 68% 30.12 in 10.0 mi East 4.6 mph - N/A   Scattered Clouds
12:15 PM 78.3 °F - 66.7 °F 68% 30.11 in 10.0 mi East 3.5 mph - N/A   Scattered Clouds
12:35 PM 78.3 °F - 65.8 °F 65% 30.11 in 10.0 mi East 3.5 mph - N/A   Scattered Clouds
12:55 PM 79.5 °F - 66.7 °F 65% 30.11 in 10.0 mi SE 6.9 mph - N/A   Mostly Cloudy
1:15 PM 79.0 °F - 67.1 °F 67% 30.11 in 10.0 mi SE 5.8 mph - N/A   Mostly Cloudy
1:35 PM 79.3 °F - 67.3 °F 66% 30.10 in 10.0 mi ESE 4.6 mph - N/A   Mostly Cloudy
1:55 PM 79.0 °F - 67.5 °F 68% 30.10 in 10.0 mi ESE 5.8 mph - N/A   Overcast
2:15 PM 80.1 °F 82.4 °F 67.5 °F 65% 30.10 in 10.0 mi SE 9.2 mph - N/A   Mostly Cloudy
2:35 PM 81.1 °F 84.0 °F 68.5 °F 65% 30.10 in 10.0 mi SE 9.2 mph - N/A   Mostly Cloudy
2:55 PM 80.6 °F 83.2 °F 67.8 °F 65% 30.10 in 10.0 mi ESE 9.2 mph - N/A   Mostly Cloudy
3:15 PM 80.8 °F 83.2 °F 67.3 °F 63% 30.09 in 10.0 mi ESE 8.1 mph - N/A   Mostly Cloudy
3:35 PM 80.6 °F 82.9 °F 66.9 °F 63% 30.09 in 10.0 mi ESE 11.5 mph - N/A   Mostly Cloudy
3:55 PM 80.4 °F 83.1 °F 68.0 °F 66% 30.08 in 10.0 mi ESE 8.1 mph - N/A   Mostly Cloudy
4:15 PM 80.6 °F 83.2 °F 67.8 °F 65% 30.08 in 10.0 mi SE 10.4 mph - N/A   Scattered Clouds
4:35 PM 80.8 °F 83.2 °F 67.3 °F 63% 30.08 in 10.0 mi SE 10.4 mph - N/A   Scattered Clouds
4:55 PM 80.6 °F 83.2 °F 67.8 °F 65% 30.08 in 10.0 mi SE 9.2 mph - N/A   Scattered Clouds
5:15 PM 80.8 °F 83.6 °F 68.4 °F 66% 30.08 in 10.0 mi East 8.1 mph - N/A   Scattered Clouds
5:35 PM 80.4 °F 83.0 °F 67.6 °F 65% 30.07 in 10.0 mi ESE 6.9 mph - N/A   Clear
5:55 PM 80.2 °F 82.8 °F 68.0 °F 66% 30.08 in 10.0 mi SE 6.9 mph - N/A   Clear
6:15 PM 79.9 °F - 68.2 °F 67% 30.08 in 10.0 mi East 5.8 mph - N/A   Clear
6:35 PM 79.5 °F - 68.2 °F 68% 30.08 in 10.0 mi ESE 4.6 mph - N/A   Clear
6:55 PM 79.0 °F - 68.5 °F 70% 30.08 in 10.0 mi East 5.8 mph - N/A   Clear
7:15 PM 78.8 °F - 68.4 °F 70% 30.07 in 10.0 mi East 6.9 mph - N/A   Clear
7:35 PM 77.2 °F - 68.5 °F 75% 30.07 in 10.0 mi East 6.9 mph - N/A   Clear
7:55 PM 75.6 °F - 68.2 °F 78% 30.07 in 10.0 mi East 5.8 mph - N/A   Clear
8:15 PM 74.5 °F - 68.2 °F 81% 30.08 in 10.0 mi East 3.5 mph - N/A   Clear
8:35 PM 73.9 °F - 68.4 °F 83% 30.08 in 10.0 mi East 4.6 mph - N/A   Scattered Clouds
8:55 PM 73.8 °F - 68.9 °F 85% 30.08 in 10.0 mi East 5.8 mph - N/A   Mostly Cloudy
9:15 PM 73.4 °F - 68.9 °F 86% 30.08 in 10.0 mi East 5.8 mph - N/A   Scattered Clouds
9:35 PM 73.4 °F - 68.9 °F 86% 30.09 in 10.0 mi East 6.9 mph - N/A   Mostly Cloudy
9:55 PM 73.4 °F - 68.7 °F 85% 30.09 in 10.0 mi East 6.9 mph - N/A   Overcast
10:15 PM 73.4 °F - 68.4 °F 84% 30.09 in 10.0 mi East 5.8 mph - N/A   Overcast
10:35 PM 73.0 °F - 68.2 °F 85% 30.10 in 7.0 mi East 4.6 mph - N/A   Scattered Clouds
10:55 PM 72.7 °F - 68.2 °F 86% 30.10 in 7.0 mi East 5.8 mph - N/A   Mostly Cloudy
11:15 PM 72.7 °F - 68.0 °F 85% 30.09 in 10.0 mi East 5.8 mph - N/A   Overcast
11:35 PM 72.5 °F - 67.8 °F 85% 30.09 in 10.0 mi ESE 5.8 mph - N/A   Mostly Cloudy
11:55 PM 72.3 °F - 67.5 °F 85% 30.10 in 10.0 mi ESE 6.9 mph - N/A   Mostly Cloudy